DW3838 Weather Reports


Display with metric or nautical units.
time (UTC)temp
F
wind
direction
speed
MPH
gust
MPH
rain 1hr
in
rain 24hr
in
rain mn
in
humidity
%
barometer
mb
20260505183053 60 181 0.0 5.0 0.00 0.31 0.06 79 1016.2
20260505181544 59 198 0.0 3.0 0.00 0.31 0.06 79 1016.1
20260505180042 58 197 0.0 4.0 0.00 0.31 0.06 80 1016.1
20260505174543 58 194 0.0 2.0 0.00 0.31 0.06 81 1015.9
20260505173042 58 171 0.0 3.0 0.00 0.31 0.06 83 1015.8
20260505171541 57 5 0.0 3.0 0.00 0.31 0.06 84 1015.7
20260505170036 57 128 0.0 4.0 0.00 0.31 0.06 85 1015.8
20260505164537 56 323 1.0 5.0 0.00 0.31 0.06 84 1015.8
20260505163031 53 339 3.0 8.0 0.00 0.31 0.06 85 1015.6
20260505161527 52 309 0.0 9.0 0.00 0.31 0.06 88 1015.5
20260505153028 54 272 0.0 0.0 0.00 0.31 0.06 94 1015.4
20260505151521 54 178 1.0 4.0 0.00 0.31 0.06 94 1015.3
20260505124515 52 169 0.0 0.0 0.00 0.31 0.06 94 1014.4
20260505123014 53 169 0.0 0.0 0.00 0.31 0.06 94 1014.4
20260505121512 53 207 0.0 4.0 0.00 0.31 0.06 94 1014.4
20260505120012 52 217 0.0 0.0 0.00 0.31 0.06 94 1014.4
20260505114509 52 181 0.0 3.0 0.00 0.31 0.06 94 1014.6
20260505113010 52 171 0.0 0.0 0.00 0.31 0.06 94 1014.6
20260505111515 52 178 0.0 0.0 0.00 0.31 0.06 94 1014.6
20260505101508 52 129 0.0 0.0 0.02 0.31 0.06 94 1014.9
20260505100005 52 129 0.0 0.0 0.02 0.31 0.06 94 1014.7
20260505094503 52 129 0.0 0.0 0.03 0.30 0.05 93 1014.5
20260505093003 52 315 0.0 0.0 0.05 0.30 0.05 93 1014.4
20260505091501 52 316 0.0 0.0 0.04 0.28 0.04 93 1014.8
20260505090110 52 30 0.0 0.0 0.04 0.28 0.04 93 1015.2
20260505084559 52 30 0.0 0.0 0.02 0.27 0.02 93 1015.0
20260505083108 52 30 0.0 0.0 0.00 0.25 0.00 93 1015.2
20260505081559 52 30 0.0 0.0 0.00 0.25 0.00 93 1015.1
20260505080057 52 30 0.0 0.0 0.00 0.25 0.00 93 1015.3
20260505074554 52 30 0.0 0.0 0.01 0.25 0.00 93 1015.4
20260505073058 52 30 0.0 0.0 0.05 0.25 0.00 93 1015.2
20260505071547 52 42 0.0 0.0 0.07 0.25 0.00 93 1015.1
20260505070051 51 54 0.0 4.0 0.07 0.25 0.00 93 1015.4
20260505064541 52 318 0.0 3.0 0.06 0.24 0.24 93 1015.1
20260505063042 52 179 0.0 0.0 0.02 0.20 0.20 93 1016.1
20260505061540 52 179 0.0 0.0 0.00 0.18 0.18 93 1016.2
20260505060040 51 179 0.0 0.0 0.00 0.18 0.18 93 1015.4
20260505054539 51 180 0.0 0.0 0.00 0.18 0.18 93 1015.4
20260505053039 51 180 0.0 0.0 0.00 0.18 0.18 93 1015.4
20260505051539 51 180 0.0 0.0 0.00 0.18 0.18 93 1015.9
20260505050116 51 180 0.0 0.0 0.00 0.18 0.18 92 1016.2
20260505041549 51 209 0.0 0.0 0.00 0.18 0.18 92 1015.8
20260505040037 51 209 0.0 0.0 0.00 0.18 0.18 92 1015.9
20260505034532 51 209 0.0 0.0 0.00 0.18 0.18 91 1015.4
20260505033032 51 209 0.0 0.0 0.01 0.18 0.18 91 1015.0
20260505031540 50 209 0.0 0.0 0.01 0.18 0.18 91 1014.0
20260505030035 50 209 0.0 0.0 0.04 0.18 0.18 91 1014.8
20260505024530 50 209 0.0 0.0 0.05 0.18 0.18 90 1015.3
20260505023039 50 209 0.0 0.0 0.05 0.17 0.17 90 1015.2
20260505021529 50 99 0.0 0.0 0.06 0.17 0.17 90 1015.7
20260505020029 50 99 0.0 0.0 0.04 0.14 0.14 90 1015.7
20260505014526 50 99 0.0 0.0 0.03 0.13 0.13 90 1015.6
20260505013026 50 99 0.0 0.0 0.03 0.12 0.12 90 1015.8
20260505011530 50 99 0.0 0.0 0.03 0.11 0.11 89 1015.8
20260505010025 50 99 0.0 0.0 0.03 0.10 0.10 89 1015.7
20260505004534 50 99 0.0 0.0 0.04 0.10 0.10 88 1015.8
20260505003024 50 99 0.0 0.0 0.03 0.09 0.09 88 1015.5
20260505001524 50 94 0.0 0.0 0.03 0.08 0.08 87 1015.6
20260505000029 50 253 0.0 0.0 0.03 0.07 0.07 87 1015.6
20260504234521 51 256 0.0 0.0 0.04 0.06 0.06 87 1015.6
20260504233021 51 256 0.0 0.0 0.05 0.06 0.06 87 1015.4
20260504231524 52 256 0.0 0.0 0.04 0.04 0.04 86 1015.6
20260504230021 53 343 0.0 0.0 0.04 0.04 0.04 86 1015.7
20260504224519 55 101 0.0 0.0 0.02 0.02 0.02 86 1015.6
20260504223019 56 101 0.0 0.0 0.01 0.01 0.01 83 1015.6
20260504221521 57 240 0.0 2.0 0.00 0.00 0.00 79 1015.5
20260504220017 58 47 0.0 0.0 0.00 0.00 0.00 77 1015.4
20260504214516 59 18 0.0 0.0 0.00 0.00 0.00 74 1015.5
20260504213040 61 146 0.0 0.0 0.00 0.00 0.00 71 1015.6
20260504211518 61 219 0.0 0.0 0.00 0.00 0.00 70 1015.6
20260504210018 62 245 0.0 4.0 0.00 0.00 0.00 69 1015.5
20260504204514 62 145 0.0 9.0 0.00 0.00 0.00 71 1015.5
20260504203015 61 207 0.0 4.0 0.00 0.00 0.00 72 1015.5
20260504201521 60 173 0.0 4.0 0.00 0.00 0.00 74 1015.4
20260504200015 60 316 0.0 0.0 0.00 0.00 0.00 73 1015.5
20260504194517 61 140 0.0 5.0 0.00 0.00 0.00 71 1015.5
20260504193014 63 169 0.0 5.0 0.00 0.00 0.00 69 1015.4
20260504191512 64 252 0.0 7.0 0.00 0.00 0.00 67 1015.3
20260504190008 64 65 0.0 0.0 0.00 0.00 0.00 68 1015.4
20260504184511 63 106 0.0 3.0 0.00 0.00 0.00 71 1015.5